Wind from 307 at 3 knots gusting 9

Air temperature 16.1° C
Dewpoint -1.9° C

Last reported at 2014-Apr-23 18:45 UTC.
Time now 2014-Apr-23 19:17 UTC

Location: N 39°11' W 008°44'.
View on Google Maps.

See reports from other nearby stations

Tides Stations Pressure Air Temp Water Temp Dewpoint Dewpoint depression Visibility Wind Speed Wind Dir Waves Ship positions

  
sailing weather and tide predictions

CT1AKV-10 Estrada Real PT weather

date/time (UTC)wind fromknots sea level pressurealtimeterstation pressurevisibilityair tempwater tempwave heightnotes
2014-Apr-23 18:45 307 3 gusting 9 16.1
2014-Apr-23 18:30 315 3 gusting 8 17.2
2014-Apr-23 18:15 312 3 gusting 9 18.3
2014-Apr-23 18:00 315 3 gusting 9 18.9
2014-Apr-23 17:45 309 3 gusting 8 18.9
2014-Apr-23 17:30 305 2 gusting 7 19.4
2014-Apr-23 17:15 326 2 gusting 6 19.4
2014-Apr-23 17:00 303 4 gusting 9 20.6
2014-Apr-23 16:45 296 3 gusting 8 23.3
2014-Apr-23 16:30 307 2 gusting 6 23.9
2014-Apr-23 16:15 297 1 gusting 6 23.9
2014-Apr-23 16:00 313 2 gusting 6 23.3
2014-Apr-23 15:45 324 1 gusting 4 22.2
2014-Apr-23 15:15 258 0 gusting 3 22.2
2014-Apr-23 15:00 21.1
2014-Apr-23 14:45 135 22.2
2014-Apr-23 14:30 138 0 gusting 3 21.7
2014-Apr-23 14:15 20.6
2014-Apr-23 14:00 009 0 gusting 3 20.0
2014-Apr-23 13:45 355 0 gusting 4 20.6
2014-Apr-23 13:30 065 0 gusting 4 21.7
2014-Apr-23 13:15 040 1 gusting 4 23.3
2014-Apr-23 13:00 099 0 gusting 3 21.7
2014-Apr-23 12:45 016 20.6
2014-Apr-23 12:30 282 0 gusting 3 19.4
2014-Apr-23 12:15 018 19.4
2014-Apr-23 12:00 037 0 gusting 5 20.0
2014-Apr-23 11:45 090 0 gusting 5 21.1
2014-Apr-23 11:30 120 0 gusting 4 21.7
2014-Apr-23 11:15 041 20.6
2014-Apr-23 11:00 053 1 gusting 5 19.4
2014-Apr-23 10:45 086 0 gusting 3 21.1
2014-Apr-23 10:30 032 1 gusting 6 19.4
2014-Apr-23 10:15 055 0 gusting 3 18.9
2014-Apr-23 10:00 312 0 gusting 3 17.2
2014-Apr-23 09:45 074 0 gusting 3 17.2
2014-Apr-22 21:30 13.9
2014-Apr-22 21:15 14.4
2014-Apr-22 21:00 14.4
2014-Apr-22 20:45 259 15.0
2014-Apr-22 20:30 213 15.6
2014-Apr-22 20:15 234 15.6
2014-Apr-22 20:00 230 16.1
2014-Apr-22 19:45 340 16.1
2014-Apr-22 19:30 317 16.1
2014-Apr-22 19:15 238 0 gusting 3 16.7
2014-Apr-22 19:00 210 0 gusting 4 17.8
2014-Apr-22 18:45 238 0 gusting 3 19.4
2014-Apr-22 18:30 190 0 gusting 3 19.4
2014-Apr-22 18:15 148 0 gusting 6 21.7
2014-Apr-22 18:00 193 0 gusting 4 22.2
2014-Apr-22 17:45 185 1 gusting 7 22.8
2014-Apr-22 17:30 197 1 gusting 7 23.3
2014-Apr-22 17:15 178 0 gusting 5 23.3
2014-Apr-22 17:00 187 1 gusting 7 23.3
2014-Apr-22 16:45 136 1 gusting 8 23.9
2014-Apr-22 16:30 183 1 gusting 7 24.4
2014-Apr-22 16:15 259 1 gusting 6 24.4
2014-Apr-22 16:00 230 2 gusting 11 24.4
2014-Apr-22 15:45 231 1 gusting 6 25.6
2014-Apr-22 15:30 165 1 gusting 6 25.6
2014-Apr-22 15:15 149 1 gusting 8 25.6
2014-Apr-22 15:00 163 2 gusting 7 25.6
2014-Apr-22 14:45 203 1 gusting 12 25.6
2014-Apr-22 14:30 181 1 gusting 9 25.0
2014-Apr-22 14:15 105 2 gusting 9 23.9
2014-Apr-22 14:00 207 1 gusting 9 23.9
2014-Apr-22 13:45 071 0 gusting 8 23.3
2014-Apr-22 13:30 253 2 gusting 9 25.0
2014-Apr-22 13:15 196 1 gusting 6 24.4
2014-Apr-22 13:00 214 1 gusting 6 25.0
2014-Apr-22 12:45 197 1 gusting 6 24.4
2014-Apr-22 12:30 159 1 gusting 6 23.9
2014-Apr-22 12:15 156 1 gusting 8 23.3
2014-Apr-22 12:00 164 1 gusting 8 22.8
2014-Apr-22 11:45 188 0 gusting 6 20.0
2014-Apr-22 11:30 156 20.0
2014-Apr-22 11:15 163 0 gusting 5 20.0
2014-Apr-22 11:00 269 0 gusting 5 21.7
2014-Apr-22 10:45 173 0 gusting 5 20.6
2014-Apr-22 10:30 152 0 gusting 3 20.0
2014-Apr-22 10:15 174 0 gusting 3 20.6
2014-Apr-22 10:00 183 0 gusting 5 19.4
2014-Apr-22 09:45 106 0 gusting 5 19.4
2014-Apr-22 09:30 144 0 gusting 3 18.9
2014-Apr-21 22:00 264 0 gusting 4 12.2
2014-Apr-21 21:45 282 0 gusting 3 12.2
2014-Apr-21 21:30 283 0 gusting 3 12.2
2014-Apr-21 21:15 282 1 gusting 3 12.2
2014-Apr-21 21:00 306 0 gusting 3 12.2
2014-Apr-21 20:45 283 0 gusting 2 12.8
2014-Apr-21 20:30 289 0 gusting 3 12.8
2014-Apr-21 20:15 301 0 gusting 3 13.3
2014-Apr-21 20:00 286 0 gusting 4 13.3
2014-Apr-21 19:45 283 1 gusting 5 13.9
2014-Apr-21 19:30 306 1 gusting 5 14.4
2014-Apr-21 19:15 306 2 gusting 7 15.0
2014-Apr-21 19:00 304 4 gusting 9 15.6